#datetime,building,power
2021-04-13T00:00:00,mbh,323.00
2021-04-13T00:05:00,mbh,288.00
2021-04-13T00:10:00,mbh,292.00
2021-04-13T00:15:00,mbh,275.00
2021-04-13T00:20:00,mbh,284.00
2021-04-13T00:25:00,mbh,289.00
2021-04-13T00:30:00,mbh,278.00
2021-04-13T00:35:00,mbh,272.00
2021-04-13T00:40:00,mbh,279.00
2021-04-13T00:45:00,mbh,283.00
2021-04-13T00:50:00,mbh,295.00
2021-04-13T00:55:00,mbh,308.00
2021-04-13T01:00:00,mbh,286.00
2021-04-13T01:05:00,mbh,285.00
2021-04-13T01:10:00,mbh,297.00
2021-04-13T01:15:00,mbh,308.00
2021-04-13T01:20:00,mbh,319.00
2021-04-13T01:25:00,mbh,310.00
2021-04-13T01:30:00,mbh,301.00
2021-04-13T01:35:00,mbh,335.00
2021-04-13T01:40:00,mbh,302.00
2021-04-13T01:45:00,mbh,306.00
2021-04-13T01:50:00,mbh,297.00
2021-04-13T01:55:00,mbh,304.00
2021-04-13T02:00:00,mbh,282.00
2021-04-13T02:05:00,mbh,286.00
2021-04-13T02:10:00,mbh,282.00
2021-04-13T02:15:00,mbh,308.00
2021-04-13T02:20:00,mbh,285.00
2021-04-13T02:25:00,mbh,280.00
2021-04-13T02:30:00,mbh,321.00
2021-04-13T02:35:00,mbh,285.00
2021-04-13T02:40:00,mbh,286.00
2021-04-13T02:45:00,mbh,288.00
2021-04-13T02:50:00,mbh,290.00
2021-04-13T02:55:00,mbh,289.00
2021-04-13T03:00:00,mbh,279.00
2021-04-13T03:05:00,mbh,281.00
2021-04-13T03:10:00,mbh,308.00
2021-04-13T03:15:00,mbh,286.00
2021-04-13T03:20:00,mbh,281.00
2021-04-13T03:25:00,mbh,293.00
2021-04-13T03:30:00,mbh,315.00
2021-04-13T03:35:00,mbh,297.00
2021-04-13T03:40:00,mbh,288.00
2021-04-13T03:45:00,mbh,290.00
2021-04-13T03:50:00,mbh,283.00
2021-04-13T03:55:00,mbh,284.00
2021-04-13T04:00:00,mbh,288.00
2021-04-13T04:05:00,mbh,283.00
2021-04-13T04:10:00,mbh,287.00
2021-04-13T04:15:00,mbh,313.00
2021-04-13T04:20:00,mbh,290.00
2021-04-13T04:25:00,mbh,287.00
2021-04-13T04:30:00,mbh,290.00
2021-04-13T04:35:00,mbh,306.00
2021-04-13T04:40:00,mbh,287.00
2021-04-13T04:45:00,mbh,315.00
2021-04-13T04:50:00,mbh,288.00
2021-04-13T04:55:00,mbh,290.00
2021-04-13T05:00:00,mbh,305.00
2021-04-13T05:05:00,mbh,282.00
2021-04-13T05:10:00,mbh,295.00
2021-04-13T05:15:00,mbh,303.00
2021-04-13T05:20:00,mbh,291.00
2021-04-13T05:25:00,mbh,293.00
2021-04-13T05:30:00,mbh,305.00
2021-04-13T05:35:00,mbh,289.00
2021-04-13T05:40:00,mbh,285.00
2021-04-13T05:45:00,mbh,309.00
2021-04-13T05:50:00,mbh,292.00
2021-04-13T05:55:00,mbh,287.00
2021-04-13T06:00:00,mbh,277.00
2021-04-13T06:05:00,mbh,283.00
2021-04-13T06:10:00,mbh,286.00
2021-04-13T06:15:00,mbh,287.00
2021-04-13T06:20:00,mbh,284.00
2021-04-13T06:25:00,mbh,279.00
2021-04-13T06:30:00,mbh,290.00
2021-04-13T06:35:00,mbh,324.00
2021-04-13T06:40:00,mbh,318.00
2021-04-13T06:45:00,mbh,304.00
2021-04-13T06:50:00,mbh,294.00
2021-04-13T06:55:00,mbh,308.00
2021-04-13T07:00:00,mbh,289.00
2021-04-13T07:05:00,mbh,387.00
2021-04-13T07:10:00,mbh,411.00
2021-04-13T07:15:00,mbh,425.00
2021-04-13T07:20:00,mbh,443.00
2021-04-13T07:25:00,mbh,440.00
2021-04-13T07:30:00,mbh,448.00
2021-04-13T07:35:00,mbh,468.00
2021-04-13T07:40:00,mbh,462.00
2021-04-13T07:45:00,mbh,453.00
2021-04-13T07:50:00,mbh,457.00
2021-04-13T07:55:00,mbh,487.00
2021-04-13T08:00:00,mbh,505.00
2021-04-13T08:05:00,mbh,490.00
2021-04-13T08:10:00,mbh,515.00
2021-04-13T08:15:00,mbh,516.00
2021-04-13T08:20:00,mbh,490.00
2021-04-13T08:25:00,mbh,483.00
2021-04-13T08:30:00,mbh,484.00
2021-04-13T08:35:00,mbh,486.00
2021-04-13T08:40:00,mbh,480.00
2021-04-13T08:45:00,mbh,499.00
2021-04-13T08:50:00,mbh,504.00
2021-04-13T08:55:00,mbh,483.00
2021-04-13T09:00:00,mbh,480.00
2021-04-13T09:05:00,mbh,492.00
2021-04-13T09:10:00,mbh,488.00
2021-04-13T09:15:00,mbh,496.00
2021-04-13T09:20:00,mbh,496.00
2021-04-13T09:25:00,mbh,477.00
2021-04-13T09:30:00,mbh,511.00
2021-04-13T09:35:00,mbh,486.00
2021-04-13T09:40:00,mbh,510.00
2021-04-13T09:45:00,mbh,489.00
2021-04-13T09:50:00,mbh,501.00
2021-04-13T09:55:00,mbh,495.00
2021-04-13T10:00:00,mbh,496.00
2021-04-13T10:05:00,mbh,506.00
2021-04-13T10:10:00,mbh,521.00
2021-04-13T10:15:00,mbh,536.00
2021-04-13T10:20:00,mbh,515.00
2021-04-13T10:25:00,mbh,519.00
2021-04-13T10:30:00,mbh,520.00
2021-04-13T10:35:00,mbh,557.00
2021-04-13T10:40:00,mbh,521.00
2021-04-13T10:45:00,mbh,525.00
2021-04-13T10:50:00,mbh,519.00
2021-04-13T10:55:00,mbh,534.00
2021-04-13T11:00:00,mbh,505.00
2021-04-13T11:05:00,mbh,564.00
2021-04-13T11:10:00,mbh,500.00
2021-04-13T11:15:00,mbh,502.00
2021-04-13T11:20:00,mbh,522.00
2021-04-13T11:25:00,mbh,503.00
2021-04-13T11:30:00,mbh,510.00
2021-04-13T11:35:00,mbh,512.00
2021-04-13T11:40:00,mbh,517.00
2021-04-13T11:45:00,mbh,512.00
2021-04-13T11:50:00,mbh,500.00
2021-04-13T11:55:00,mbh,603.00
2021-04-13T12:00:00,mbh,612.00
2021-04-13T12:05:00,mbh,596.00
2021-04-13T12:10:00,mbh,586.00
2021-04-13T12:15:00,mbh,598.00
2021-04-13T12:20:00,mbh,590.00
2021-04-13T12:25:00,mbh,632.00
2021-04-13T12:30:00,mbh,607.00
2021-04-13T12:35:00,mbh,595.00
2021-04-13T12:40:00,mbh,594.00
2021-04-13T12:45:00,mbh,588.00
2021-04-13T12:50:00,mbh,580.00
2021-04-13T12:55:00,mbh,599.00
2021-04-13T13:00:00,mbh,579.00
2021-04-13T13:05:00,mbh,575.00
2021-04-13T13:10:00,mbh,575.00
2021-04-13T13:15:00,mbh,586.00
2021-04-13T13:20:00,mbh,597.00
2021-04-13T13:25:00,mbh,608.00
2021-04-13T13:30:00,mbh,615.00
2021-04-13T13:35:00,mbh,641.00
2021-04-13T13:40:00,mbh,602.00
2021-04-13T13:45:00,mbh,619.00
2021-04-13T13:50:00,mbh,607.00
2021-04-13T13:55:00,mbh,609.00
2021-04-13T14:00:00,mbh,630.00
2021-04-13T14:05:00,mbh,636.00
2021-04-13T14:10:00,mbh,647.00
2021-04-13T14:15:00,mbh,630.00
2021-04-13T14:20:00,mbh,619.00
2021-04-13T14:25:00,mbh,617.00
2021-04-13T14:30:00,mbh,617.00
2021-04-13T14:35:00,mbh,621.00
2021-04-13T14:40:00,mbh,647.00
2021-04-13T14:45:00,mbh,632.00
2021-04-13T14:50:00,mbh,649.00
2021-04-13T14:55:00,mbh,656.00
2021-04-13T15:00:00,mbh,623.00
2021-04-13T15:05:00,mbh,623.00
2021-04-13T15:10:00,mbh,620.00
2021-04-13T15:15:00,mbh,632.00
2021-04-13T15:20:00,mbh,617.00
2021-04-13T15:25:00,mbh,626.00
2021-04-13T15:30:00,mbh,658.00
2021-04-13T15:35:00,mbh,640.00
2021-04-13T15:40:00,mbh,632.00
2021-04-13T15:45:00,mbh,651.00
2021-04-13T15:50:00,mbh,633.00
2021-04-13T15:55:00,mbh,622.00
2021-04-13T16:00:00,mbh,610.00
2021-04-13T16:05:00,mbh,630.00
2021-04-13T16:10:00,mbh,637.00
2021-04-13T16:15:00,mbh,666.00
2021-04-13T16:20:00,mbh,670.00
2021-04-13T16:25:00,mbh,647.00
2021-04-13T16:30:00,mbh,642.00
2021-04-13T16:35:00,mbh,626.00
2021-04-13T16:40:00,mbh,641.00
2021-04-13T16:45:00,mbh,641.00
2021-04-13T16:50:00,mbh,648.00
2021-04-13T16:55:00,mbh,635.00
2021-04-13T17:00:00,mbh,616.00
2021-04-13T17:05:00,mbh,591.00
2021-04-13T17:10:00,mbh,607.00
2021-04-13T17:15:00,mbh,590.00
2021-04-13T17:20:00,mbh,577.00
2021-04-13T17:25:00,mbh,614.00
2021-04-13T17:30:00,mbh,596.00
2021-04-13T17:35:00,mbh,602.00
2021-04-13T17:40:00,mbh,597.00
2021-04-13T17:45:00,mbh,582.00
2021-04-13T17:50:00,mbh,586.00
2021-04-13T17:55:00,mbh,605.00
2021-04-13T18:00:00,mbh,592.00
2021-04-13T18:05:00,mbh,553.00
2021-04-13T18:10:00,mbh,550.00
2021-04-13T18:15:00,mbh,577.00
2021-04-13T18:20:00,mbh,554.00
2021-04-13T18:25:00,mbh,536.00
2021-04-13T18:30:00,mbh,541.00
2021-04-13T18:35:00,mbh,537.00
2021-04-13T18:40:00,mbh,546.00
2021-04-13T18:45:00,mbh,520.00
2021-04-13T18:50:00,mbh,520.00
2021-04-13T18:55:00,mbh,527.00
2021-04-13T19:00:00,mbh,523.00
2021-04-13T19:05:00,mbh,527.00
2021-04-13T19:10:00,mbh,522.00
2021-04-13T19:15:00,mbh,523.00
2021-04-13T19:20:00,mbh,573.00
2021-04-13T19:25:00,mbh,539.00
2021-04-13T19:30:00,mbh,542.00
2021-04-13T19:35:00,mbh,488.00
2021-04-13T19:40:00,mbh,522.00
2021-04-13T19:45:00,mbh,546.00
2021-04-13T19:50:00,mbh,536.00
2021-04-13T19:55:00,mbh,524.00
2021-04-13T20:00:00,mbh,552.00
2021-04-13T20:05:00,mbh,504.00
2021-04-13T20:10:00,mbh,485.00
2021-04-13T20:15:00,mbh,482.00
2021-04-13T20:20:00,mbh,467.00
2021-04-13T20:25:00,mbh,464.00
2021-04-13T20:30:00,mbh,483.00
2021-04-13T20:35:00,mbh,423.00
2021-04-13T20:40:00,mbh,422.00
2021-04-13T20:45:00,mbh,416.00
2021-04-13T20:50:00,mbh,433.00
2021-04-13T20:55:00,mbh,462.00
2021-04-13T21:00:00,mbh,446.00
2021-04-13T21:05:00,mbh,416.00
2021-04-13T21:10:00,mbh,436.00
2021-04-13T21:15:00,mbh,425.00
2021-04-13T21:20:00,mbh,424.00
2021-04-13T21:25:00,mbh,451.00
2021-04-13T21:30:00,mbh,416.00
2021-04-13T21:35:00,mbh,418.00
2021-04-13T21:40:00,mbh,438.00
2021-04-13T21:45:00,mbh,418.00
2021-04-13T21:50:00,mbh,420.00
2021-04-13T21:55:00,mbh,442.00
2021-04-13T22:00:00,mbh,408.00
2021-04-13T22:05:00,mbh,422.00
2021-04-13T22:10:00,mbh,409.00
2021-04-13T22:15:00,mbh,414.00
2021-04-13T22:20:00,mbh,427.00
2021-04-13T22:25:00,mbh,434.00
2021-04-13T22:30:00,mbh,411.00
2021-04-13T22:35:00,mbh,405.00
2021-04-13T22:40:00,mbh,414.00
2021-04-13T22:45:00,mbh,432.00
2021-04-13T22:50:00,mbh,404.00
2021-04-13T22:55:00,mbh,420.00
2021-04-13T23:00:00,mbh,405.00
2021-04-13T23:05:00,mbh,394.00
2021-04-13T23:10:00,mbh,400.00
2021-04-13T23:15:00,mbh,427.00
2021-04-13T23:20:00,mbh,382.00
2021-04-13T23:25:00,mbh,390.00
2021-04-13T23:30:00,mbh,404.00
2021-04-13T23:35:00,mbh,418.00
2021-04-13T23:40:00,mbh,374.00
2021-04-13T23:45:00,mbh,383.00
2021-04-13T23:50:00,mbh,384.00
2021-04-13T23:55:00,mbh,434.00
